Valley City, ND

10:32 AM CST on December 09, 2019 (GMT -0600)
Valley City

Weather History for KBAC - October, 2019

Change the Weather History Date:

Tuesday, October 29, 2019

  Actual Average (KJMS) Record (KJMS)
Temperature  
Mean Temperature 22 °F -  
Max Temperature 26 °F 48 °F 80 °F (1950)
Min Temperature 19 °F 29 °F -6 °F (1895)
Degree Days  
Heating Degree Days 42    
Moisture  
Dew Point 13 °F    
Average Humidity 64    
Maximum Humidity 86    
Minimum Humidity 51    
Precipitation  
Precipitation 0.00 in - - ()
Sea Level Pressure  
Sea Level Pressure 30.21 in    
Wind  
Wind Speed 15 mph (WNW)    
Max Wind Speed 25 mph    
Max Gust Speed 32 mph    
Visibility 10 miles    
Events Snow    
Averages and records for this station are not official NWS values.
T = Trace of Precipitation, MM = Missing Value Source: NWS Daily Summary

Daily Weather History Graph

Daily Weather History Graph

Search for Another Location

Airport or City:

Astronomy

Oct. 29, 2019 Rise Set
Actual Time 8:09 AM CDT 6:20 PM CDT
Civil Twilight 7:38 AM CDT 6:52 PM CDT
Nautical Twilight 7:02 AM CDT 7:28 PM CDT
Astronomical Twilight 6:27 AM CDT 8:03 PM CDT
Moon 9:49 AM CDT (10/29) 7:40 PM CDT (10/29)
Length of Visible Light 11h 14m
Length of Day
10h 10m
Waxing Crescent, 3% of the Moon is Illuminated
Oct 29
Waxing Crescent
Nov 4
First Quarter
Nov 12
Full
Nov 19
Last Quarter
Nov 26
New

Hourly Weather History & Observations

Time (CDT) Temp. Windchill Dew Point Humidity Pressure Visibility Wind Dir Wind Speed Gust Speed Precip Events Conditions
12:15 AM 24.8 °F 12.4 °F 12.2 °F 59% 30.12 in 10.0 mi WNW 15.0 mph - N/A   Clear
12:35 AM 24.8 °F 14.6 °F 14.0 °F 64% 30.12 in 10.0 mi WNW 10.4 mph 16.1 mph N/A   Clear
12:55 AM 24.8 °F 13.4 °F 14.0 °F 64% 30.12 in 10.0 mi NW 12.7 mph 18.4 mph N/A   Clear
1:15 AM 24.8 °F 12.9 °F 12.2 °F 59% 30.13 in 10.0 mi WNW 13.8 mph 20.7 mph N/A   Mostly Cloudy
1:35 AM 24.8 °F 12.9 °F 12.2 °F 59% 30.13 in 10.0 mi WNW 13.8 mph 20.7 mph N/A   Overcast
1:55 AM 24.8 °F 12.9 °F 12.2 °F 59% 30.13 in 10.0 mi WNW 13.8 mph 21.9 mph N/A   Scattered Clouds
2:15 AM 24.8 °F 11.9 °F 10.4 °F 54% 30.13 in 10.0 mi WNW 16.1 mph 23.0 mph N/A   Partly Cloudy
2:55 AM 23.0 °F 9.2 °F 10.4 °F 59% 30.14 in 10.0 mi WNW 17.3 mph - N/A   Scattered Clouds
3:15 AM 23.0 °F 9.2 °F 12.2 °F 63% 30.14 in 10.0 mi WNW 17.3 mph - N/A   Mostly Cloudy
3:35 AM 23.0 °F 11.1 °F 12.2 °F 63% 30.14 in 10.0 mi WNW 12.7 mph 19.6 mph N/A   Partly Cloudy
3:55 AM 23.0 °F 11.7 °F 14.0 °F 68% 30.14 in 10.0 mi WNW 11.5 mph - N/A   Scattered Clouds
4:15 AM 23.0 °F 11.1 °F 14.0 °F 68% 30.14 in 10.0 mi WNW 12.7 mph 18.4 mph N/A   Mostly Cloudy
4:35 AM 21.2 °F 10.1 °F 14.0 °F 74% 30.15 in 10.0 mi West 10.4 mph - N/A   Scattered Clouds
4:55 AM 21.2 °F 10.9 °F 14.0 °F 74% 30.15 in 10.0 mi West 9.2 mph 17.3 mph N/A   Mostly Cloudy
5:15 AM 21.2 °F 9.5 °F 14.0 °F 74% 30.15 in 10.0 mi West 11.5 mph - N/A   Mostly Cloudy
5:35 AM 21.2 °F 8.9 °F 15.8 °F 80% 30.16 in 10.0 mi West 12.7 mph - N/A   Clear
5:55 AM 21.2 °F 8.3 °F 15.8 °F 80% 30.16 in 10.0 mi West 13.8 mph - N/A   Clear
6:15 AM 21.2 °F 7.8 °F 15.8 °F 80% 30.17 in 10.0 mi West 15.0 mph 24.2 mph N/A   Clear
6:35 AM 19.4 °F 6.6 °F 15.8 °F 86% 30.17 in 10.0 mi West 12.7 mph - N/A   Clear
6:55 AM 19.4 °F 6.0 °F 15.8 °F 86% 30.17 in 10.0 mi West 13.8 mph - N/A Snow Light Snow
7:15 AM 21.2 °F 7.8 °F 15.8 °F 80% 30.18 in 10.0 mi WNW 15.0 mph 21.9 mph N/A   Overcast
7:55 AM 21.2 °F 9.5 °F 15.8 °F 80% 30.18 in 10.0 mi WNW 11.5 mph - N/A   Overcast
8:15 AM 19.4 °F 7.2 °F 14.0 °F 80% 30.19 in 10.0 mi WNW 11.5 mph 20.7 mph N/A   Mostly Cloudy
8:35 AM 19.4 °F 8.6 °F 14.0 °F 80% 30.20 in 10.0 mi WNW 9.2 mph 18.4 mph N/A   Scattered Clouds
8:55 AM 21.2 °F 10.9 °F 15.8 °F 80% 30.21 in 10.0 mi WNW 9.2 mph - N/A   Mostly Cloudy
9:15 AM 21.2 °F 7.3 °F 15.8 °F 80% 30.22 in 10.0 mi WNW 16.1 mph - N/A Snow Light Snow
9:35 AM 21.2 °F 7.3 °F 12.2 °F 68% 30.22 in 10.0 mi West 16.1 mph 21.9 mph N/A Snow Light Snow
9:55 AM 23.0 °F 10.1 °F 14.0 °F 68% 30.23 in 10.0 mi West 15.0 mph - N/A Snow Light Snow
10:15 AM 23.0 °F 8.0 °F 14.0 °F 68% 30.23 in 10.0 mi West 20.7 mph 26.5 mph N/A Snow Light Snow
10:35 AM 23.0 °F 8.7 °F 14.0 °F 68% 30.23 in 10.0 mi West 18.4 mph - N/A Snow Light Snow
10:55 AM 23.0 °F 9.6 °F 14.0 °F 68% 30.23 in 10.0 mi WNW 16.1 mph 26.5 mph N/A Snow Light Snow
11:15 AM 23.0 °F 8.0 °F 14.0 °F 68% 30.24 in 10.0 mi WNW 20.7 mph 28.8 mph N/A Snow Light Snow
11:35 AM 23.0 °F 8.0 °F 12.2 °F 63% 30.24 in 10.0 mi West 20.7 mph 29.9 mph N/A Snow Light Snow
11:55 AM 23.0 °F 7.6 °F 12.2 °F 63% 30.24 in 10.0 mi WNW 21.9 mph 32.2 mph N/A Snow Light Snow
12:15 PM 24.8 °F 11.1 °F 12.2 °F 59% 30.25 in 10.0 mi West 18.4 mph 28.8 mph N/A Snow Light Snow
12:35 PM 24.8 °F 10.3 °F 12.2 °F 59% 30.25 in 10.0 mi West 20.7 mph 32.2 mph N/A Snow Light Snow
12:55 PM 24.8 °F 10.7 °F 12.2 °F 59% 30.24 in 10.0 mi West 19.6 mph 28.8 mph N/A Snow Light Snow
1:15 PM 24.8 °F 11.1 °F 12.2 °F 59% 30.24 in 10.0 mi WNW 18.4 mph 24.2 mph N/A Snow Light Snow
1:35 PM 26.6 °F 12.0 °F 12.2 °F 55% 30.23 in 10.0 mi West 23.0 mph 28.8 mph N/A Snow Light Snow
1:55 PM 26.6 °F 13.8 °F 10.4 °F 51% 30.23 in 10.0 mi West 17.3 mph 26.5 mph N/A Snow Light Snow
2:15 PM 24.8 °F 10.7 °F 12.2 °F 59% 30.23 in 10.0 mi West 19.6 mph - N/A Snow Light Snow
2:35 PM 24.8 °F 10.0 °F 12.2 °F 59% 30.22 in 10.0 mi West 21.9 mph - N/A Snow Light Snow
2:55 PM 24.8 °F 10.0 °F 12.2 °F 59% 30.22 in 10.0 mi West 21.9 mph - N/A Snow Light Snow
3:15 PM 24.8 °F 10.3 °F 12.2 °F 59% 30.22 in 9.0 mi West 20.7 mph - N/A Snow Light Snow
3:35 PM 24.8 °F 10.0 °F 12.2 °F 59% 30.22 in 10.0 mi West 21.9 mph - N/A Snow Light Snow
3:55 PM 26.6 °F 11.4 °F 10.4 °F 51% 30.22 in 10.0 mi West 25.3 mph 32.2 mph N/A Snow Light Snow
4:15 PM 24.8 °F 10.3 °F 10.4 °F 54% 30.22 in 10.0 mi West 20.7 mph - N/A Snow Light Snow
4:35 PM 26.6 °F 13.1 °F 12.2 °F 55% 30.22 in 10.0 mi West 19.6 mph - N/A Snow Light Snow
4:55 PM 24.8 °F 10.7 °F 12.2 °F 59% 30.21 in 10.0 mi West 19.6 mph - N/A Snow Light Snow
5:15 PM 24.8 °F 12.4 °F 12.2 °F 59% 30.22 in 10.0 mi West 15.0 mph 24.2 mph N/A Snow Light Snow
5:35 PM 26.6 °F 14.3 °F 10.4 °F 51% 30.22 in 10.0 mi West 16.1 mph 21.9 mph N/A   Overcast
5:55 PM 24.8 °F 12.4 °F 10.4 °F 54% 30.22 in 9.0 mi West 15.0 mph 24.2 mph N/A Snow Light Snow
6:15 PM 24.8 °F 12.4 °F 10.4 °F 54% 30.23 in 10.0 mi West 15.0 mph 21.9 mph N/A   Overcast
6:35 PM 24.8 °F 11.1 °F 10.4 °F 54% 30.23 in 10.0 mi West 18.4 mph 25.3 mph N/A Snow Light Snow
6:55 PM 24.8 °F 10.7 °F 10.4 °F 54% 30.24 in 10.0 mi WNW 19.6 mph - N/A Snow Light Snow
7:15 PM 24.8 °F 12.4 °F 12.2 °F 59% 30.26 in 10.0 mi WNW 15.0 mph 23.0 mph N/A   Overcast
7:35 PM 24.8 °F 12.4 °F 12.2 °F 59% 30.26 in 10.0 mi West 15.0 mph 23.0 mph N/A   Overcast
7:55 PM 24.8 °F 10.7 °F 10.4 °F 54% 30.26 in 8.0 mi West 19.6 mph - N/A Snow Light Snow
8:15 PM 24.8 °F 10.7 °F 10.4 °F 54% 30.27 in 9.0 mi West 19.6 mph 26.5 mph N/A Snow Light Snow
8:35 PM 24.8 °F 11.5 °F 12.2 °F 59% 30.26 in 10.0 mi West 17.3 mph - N/A   Overcast
8:55 PM 24.8 °F 10.7 °F 12.2 °F 59% 30.26 in 10.0 mi West 19.6 mph - N/A Snow Light Snow
9:15 PM 24.8 °F 11.5 °F 12.2 °F 59% 30.27 in 10.0 mi West 17.3 mph - N/A   Overcast
9:35 PM 24.8 °F 11.5 °F 12.2 °F 59% 30.26 in 10.0 mi WNW 17.3 mph 23.0 mph N/A   Overcast
9:55 PM 24.8 °F 11.9 °F 14.0 °F 64% 30.27 in 10.0 mi WNW 16.1 mph 25.3 mph N/A Snow Light Snow
10:15 PM 23.0 °F 11.1 °F 15.8 °F 74% 30.27 in 10.0 mi West 12.7 mph 18.4 mph N/A   Overcast
10:35 PM 24.8 °F 13.4 °F 15.8 °F 69% 30.27 in 10.0 mi West 12.7 mph 18.4 mph N/A   Overcast
10:55 PM 24.8 °F 13.4 °F 14.0 °F 64% 30.27 in 10.0 mi West 12.7 mph 24.2 mph N/A   Overcast
11:15 PM 23.0 °F 11.1 °F 14.0 °F 68% 30.27 in 10.0 mi West 12.7 mph 20.7 mph N/A   Overcast
11:35 PM 23.0 °F 9.6 °F 15.8 °F 74% 30.27 in 10.0 mi West 16.1 mph 23.0 mph N/A   Overcast
11:55 PM 23.0 °F 10.6 °F 14.0 °F 68% 30.28 in 10.0 mi WNW 13.8 mph 20.7 mph N/A   Overcast